CAPE
749 1016 1201 1311 793 410 150 70 213 173 50 179 607 434 224 432 408 192 94 310 729 692 725 840 1061 1201 938 698 861 704 583 549 504 506 526 474 441 479 389 365 326 613 868 960 1039 1179 1094 1014 1486
824 1059 1252 1146 519 210 117 268 97 96 281 530 724 410 397 349 416 416 513 520 767 607 953 675 1239 1278 1073 1058 820 782 570 678 676 479 536 552 506 500 463 506 416 447 600 692 908 936 1166 1114 1028
1347 962 1040 183 176 195 120 223 50 111 290 303 880 695 314 574 704 588 533 515 480 857 1053 996 1171 1315 1094 693 707 624 618 840 832 692 622 602 550 523 446 562 726 723 646 552 653 678 834 937 1083
1532 1040 988 708 51 211 141 52 116 170 264 434 494 466 289 405 536 456 757 490 682 1149 1196 1516 1564 1440 1375 1293 1134 1055 1037 1010 908 811 684 503 408 372 345 344 410 671 750 726 699 576 669 809 1045
1119 195 396 324 68 131 242 211 359 187 326 434 629 336 487 733 317 513 549 385 710 861 1161 1522 1826 1644 1564 1514 1382 1190 1078 1135 983 759 601 483 360 451 530 566 520 607 554 737 886 828 607 714 776
1 356 281 306 164 225 221 145 247 76 88 779 501 431 466 377 345 459 472 708 641 621 631 1072 1625 1619 1618 1419 1340 1289 1238 1046 906 780 806 910 1022 1187 1095 946 907 1033 770 894 835 1086 945 676 685
3 253 91 6 219 280 107 0 192 131 270 500 619 489 495 369 267 542 589 741 622 570 714 986 1213 1470 1759 1684 1697 1316 1126 1196 1149 1111 1182 1207 1394 1135 1012 943 829 854 866 759 943 882 1091 1177 979
35 93 58 0 171 158 317 261 401 85 95 550 406 364 330 467 307 522 583 745 549 771 613 764 865 930 1254 1355 1523 1660 971 1224 1329 1422 1432 1283 1082 1205 1057 895 737 900 1168 1001 844 1079 999 1212 1191
3 55 56 63 101 291 366 118 353 68 153 170 514 337 355 307 304 515 427 593 607 606 496 626 582 856 1221 1443 1710 1648 1199 1508 1584 1399 1500 1254 96 935 897 998 904 1012 866 899 886 994 1167 1083 1091
2 18 105 39 202 294 419 212 245 57 297 182 176 363 324 291 252 379 320 389 360 326 374 587 730 940 1111 1409 1250 1300 1185 1306 1374 1400 1190 1024 380 539 1074 1105 750 667 760 982 1210 986 1045 981 401
57 294 89 98 377 274 135 51 264 13 363 147 267 265 213 271 200 226 246 311 224 385 687 576 586 966 1234 1540 1167 1392 1236 1204 1660 1380 1148 672 1066 616 403 857 395 10 22 528 818 274 660 613 199
35 140 175 309 138 429 584 43 141 283 332 248 244 72 80 120 147 139 214 265 252 363 268 192 282 593 450 828 855 839 971 727 572 457 542 1270 71 495 549 566 937 823 677 773 385 635 599 563 127
171 182 137 221 477 478 620 274 587 167 528 237 121 10 1 12 53 54 120 172 164 209 156 100 277 680 517 486 334 495 583 451 724 980 559 749 448 724 504 540 582 723 728 497 402 347 259 25 149
72 192 120 308 86 144 818 556 229 446 407 61 1 0 0 0 0 1 11 21 35 40 20 236 351 598 293 288 30 63 164 58 536 472 631 288 566 565 701 812 1054 1166 367 342 275 651 792 274 381
37 11 8 211 97 26 94 43 68 495 366 4 0 0 0 0 2 0 1 0 2 0 0 112 375 398 765 820 680 376 3 36 306 462 658 700 682 1004 1197 895 1005 1028 859 608 84 49 43 227 378
0 54 175 98 272 230 0 0 0 168 442 10 0 0 4 11 60 18 1 0 4 1 1 10 38 235 586 964 1534 1128 843 469 707 860 1198 1490 1628 1743 1725 1549 1383 1203 685 584 524 86 279 535 619
0 14 59 29 81 285 126 0 0 148 482 131 0 38 105 185 146 13 5 1 0 31 24 148 133 221 273 958 1351 1345 1224 901 1103 1051 789 1673 1882 1927 1890 1617 1531 1160 598 461 323 249 22 500 697
3 44 62 10 17 16 206 341 492 561 728 404 108 32 90 95 136 22 9 13 0 69 243 318 352 1003 466 754 1009 1103 1067 981 1088 1057 1064 975 1914 1846 1896 1899 1776 1441 605 371 333 96 167 498 532
22 63 39 0 45 7 138 60 494 937 791 547 364 101 62 76 166 44 94 185 8 62 362 556 682 938 1104 1100 1000 994 985 1022 1116 1218 1181 2055 2002 2082 1740 1863 1838 1465 1011 854 500 345 282 502 738
0 3 0 0 0 1 209 218 244 865 928 744 549 441 98 59 100 127 254 263 257 436 634 782 860 973 974 1080 1215 1073 1000 1048 1439 1459 1936 1929 2341 2397 2125 1961 1854 1258 1117 819 752 755 855 548 941
0 1 4 0 0 1 2 173 21 411 912 842 798 708 472 104 147 131 56 398 543 668 1011 1110 1094 1161 876 1319 1156 1386 1573 1865 1993 1885 239 0 684 2285 2480 2072 1741 1205 1456 1312 930 868 919 666 836
0 1 0 0 0 0 8 163 197 498 644 887 731 896 822 420 217 232 232 165 375 993 1084 1380 1353 1621 1225 1241 1500 1299 1423 1592 1522 1893 907 172 933 2362 2228 1665 1923 1542 1447 1234 866 932 734 1412 1155
0 0 0 0 0 0 12 22 198 326 449 784 866 762 947 798 395 279 280 207 291 737 811 1638 1672 1733 1592 1406 1398 1855 1546 1709 1322 2463 2159 2134 2093 2221 1831 1638 1421 1345 1382 1312 1303 1539 1609 1469 1327
0 0 0 0 0 0 37 52 259 52 143 698 779 783 787 918 769 341 350 353 339 491 808 1198 1688 1848 1814 2218 1513 1619 2093 1279 1887 2401 2417 2157 2228 2223 1925 1641 1416 1016 1370 1297 1640 1344 1063 1149 222
0 0 0 0 2 0 15 93 20 4 2 37 609 720 820 773 956 589 360 371 368 486 499 830 1799 1961 2310 2203 2639 1715 1886 2676 1704 2177 1908 2032 1889 2224 2219 1787 1424 1196 1388 1175 1077 687 548 199 367
0 0 0 1 2 0 81 18 9 24 138 118 303 676 685 840 805 905 617 405 478 464 580 548 1921 2007 2200 2217 2320 2581 1934 2241 2184 2205 2228 2060 1896 1903 2428 1936 1445 1287 925 880 470 580 500 296 165
0 0 0 0 0 0 27 0 4 166 185 167 276 560 600 764 759 994 999 839 457 368 602 550 1948 1799 2013 2190 2403 2614 2652 2416 2183 2064 2112 1951 2645 2353 2366 1837 1185 1101 865 657 676 292 321 229 74
0 0 0 0 0 0 22 68 153 265 302 223 322 407 546 679 761 908 958 1037 918 560 441 447 1502 1734 1915 2217 2619 2695 2828 2676 2583 2526 2975 2041 2404 2723 2255 1615 1118 919 858 659 814 274 275 62 0
0 0 0 0 0 9 50 104 282 174 279 361 430 538 583 617 684 804 1082 993 1020 888 709 528 768 1303 1812 2065 2655 2646 2691 2938 2564 2851 2503 2687 3052 2667 2312 1689 1129 1007 880 691 758 422 135 10 0
0 0 0 0 0 0 0 0 155 91 113 352 548 694 667 586 662 709 999 1101 1147 1007 930 726 718 885 1640 1941 2533 2478 2656 2912 2848 2388 2842 3061 3149 2915 2483 1882 1263 1174 933 671 580 267 64 7 0
CIN
-182 -86 -42 -2 -3 -26 -15 -39 -11 -41 -53 -7 -3 -3 -46 -24 -45 -71 -58 -7 -9 -26 -24 -12 -1 0 -4 -12 -8 -10 -5 -3 -12 -6 -8 -2 -3 -9 -8 -12 -19 -14 -1 0 -2 -1 -3 -5 -2
-150 -32 -21 -19 -42 -8 -23 -12 -55 -43 -7 -7 -16 -49 -4 -57 -65 -41 -2 -4 -9 -39 -10 -26 -1 0 0 -2 -4 -1 -6 0 -3 -10 -1 -3 -1 -1 -3 -5 -11 -15 -5 -3 -2 -8 -1 -2 -11
-62 -4 0 -109 -73 -7 -50 -28 -61 -32 -8 -7 -15 -16 -2 -21 -25 -17 -7 -3 -12 -6 -8 -28 -1 0 -1 -10 -8 -9 -6 -1 0 0 0 -2 -2 0 -1 0 0 -1 0 -4 -2 -12 -2 -2 -3
-12 -9 -13 -27 -28 -12 -7 -40 -39 -8 -4 -11 -15 -17 -16 -20 -7 -21 -16 -4 -2 -14 -31 -6 0 0 0 0 0 0 0 0 0 0 0 -7 -15 -9 -5 -4 -6 0 0 0 0 -6 0 -1 0
-35 -134 -31 -9 -33 -8 -8 -6 -6 -13 -4 -4 -19 -25 -3 -15 -38 -17 -14 -7 -6 -28 -42 -6 0 0 0 0 0 0 0 0 0 -1 -7 -9 -23 -19 -7 -7 -7 -3 -10 0 0 0 -4 -2 -6
-62 -66 -45 -6 -9 -6 -35 -45 -45 -31 -19 -2 -7 -21 -8 -28 -36 -17 -35 -11 -10 -53 -58 -29 0 -1 0 0 0 0 0 0 0 -5 -6 0 -2 0 0 0 0 0 -10 -3 -7 0 0 -2 -7
-11 -6 -32 -9 -15 -7 -41 -31 -46 -18 -3 -5 -18 -36 -17 -32 -50 -11 -8 -15 -10 -49 -46 -19 -4 0 0 0 0 0 0 0 0 -2 0 0 0 -2 -13 -14 -11 -14 -8 -12 -7 -5 0 0 0
-254 -77 -56 0 -42 -1 -39 -35 -11 -23 -15 -8 -14 -29 -52 -28 -49 -11 -9 -37 -9 -24 -38 -23 -15 -17 -1 0 -2 0 -10 -1 0 0 0 -6 -16 -9 -10 -16 -28 -21 -5 -9 -15 -3 -7 0 -1
-36 -191 -70 -36 -106 -3 -4 -15 -6 -33 -18 -4 -7 -38 -50 -66 -42 -15 -7 -5 -5 -8 -19 -12 -32 -24 -6 -7 -1 0 -14 -5 -8 -14 -12 -8 -94 -20 -8 -5 -21 -24 -25 -24 -20 -9 -5 -15 -18
-19 -90 -8 -24 -10 -4 -8 -10 -10 -34 -3 -13 -22 -34 -70 -65 -49 -18 -46 -20 -14 -22 -15 -13 -13 -12 -18 -1 -36 -24 -25 -32 -34 -25 -23 -30 -75 -65 -7 -12 -28 -29 -31 -22 -10 -17 -11 -9 -13
-211 -76 -43 -8 -19 -1 -10 -37 -2 -113 -5 -36 -52 -85 -105 -69 -60 -34 -53 -32 -43 -13 -7 -21 -4 -5 -14 -14 -42 -30 -17 -27 -15 -12 -11 -10 -27 -42 -22 -27 -44 -65 -79 -24 -14 -54 -28 -2 -23
-25 -15 -7 -9 -12 -25 -15 -11 -5 -20 -18 -27 -76 -101 -115 -92 -63 -51 -31 -15 -22 -6 -13 -24 -35 -12 -15 -10 -17 -12 -18 -13 -16 -29 -14 -4 -12 -10 -5 -16 -10 -13 -17 -10 -23 -16 -14 -14 -28
-5 -3 -19 -4 -7 -20 -28 -53 -13 -26 -4 -39 -93 -167 -58 -107 -85 -72 -33 -22 -18 -10 -29 -50 -58 -11 -18 -22 -22 -4 -4 -5 -8 -12 -24 -7 -10 -4 -16 -13 -21 -9 -10 -12 -9 -14 -22 -56 -45
-3 -43 -44 -4 -194 -109 -35 -68 -82 -3 -14 -80 -52 0 0 0 -6 -82 -65 -83 -75 -58 -86 -36 -58 -51 -72 -58 -122 -83 -52 -75 -1 -5 -13 -15 -13 -11 -18 -16 -10 -11 -22 -28 -42 -9 -8 -34 -21
-6 -199 -49 -20 -159 -28 -71 -67 -89 -52 -8 -19 0 0 0 0 -2 0 -4 0 -1 0 0 -50 -69 -79 -50 -28 -33 -47 -15 -76 -8 -8 -27 -19 -26 -5 -13 -24 -22 -12 -12 -32 -62 -61 -49 -28 -20
0 -46 -11 -25 -9 -113 0 0 0 -116 -11 -13 0 -11 -20 -20 -65 -33 -2 0 -4 -3 -34 -154 -102 -76 -55 -22 -8 -13 -9 -6 -5 -7 -9 -12 -14 -10 -9 -11 -9 -3 -10 -11 -21 -48 -28 -15 -20
0 -70 -18 -65 -21 -104 -112 -9 0 -150 -21 -26 0 -102 -63 -35 -32 -42 -4 -1 0 -35 -136 -71 -57 -57 -80 -35 -19 -12 -5 -6 -10 -9 -14 -12 -7 -7 -8 -13 -12 -10 -11 -14 -14 -29 -69 -6 -8
-99 -71 -4 -2 -51 -4 -51 -76 -120 -77 -2 -4 -42 -114 -85 -66 -43 -41 -3 -4 0 -14 -41 -25 -29 -5 -46 -52 -30 -11 -5 -7 -10 -10 -12 -10 -1 -5 -2 -7 -6 -9 -16 -22 -22 -57 -36 -17 -19
-36 -4 -5 0 -32 -4 -59 -54 -25 -20 -3 -1 -22 -69 -123 -79 -43 -82 -52 -48 -125 -85 -55 -34 -18 -7 -17 -26 -44 -33 -8 -8 -11 -18 -17 -2 -9 -3 -7 -13 -9 -3 -7 -8 -23 -45 -49 -25 -16
0 -3 -9 0 0 -3 -18 -24 -24 -7 -19 -3 -15 -15 -96 -98 -66 -58 -29 -30 -36 -26 -42 -47 -19 -33 -34 -32 -21 -16 -9 -9 -7 -5 -10 -17 -1 -1 -7 -4 -1 -21 -20 -29 -32 -17 -2 -27 -3
0 -4 -6 0 0 -1 -20 -58 -126 -54 -21 -22 -2 -3 -25 -94 -50 -56 -76 -10 -21 -27 -28 -52 -32 -45 -48 -21 -17 -5 -8 -4 -2 -5 -154 0 -124 -7 -3 -2 -13 -24 -7 -3 -22 -16 -5 -19 -17
0 -1 0 0 0 0 -70 -2 -69 -21 -17 -26 -24 -3 -3 -27 -56 -37 -29 -37 -11 -16 -31 -38 -37 -38 -46 -34 -7 -10 -14 -11 -12 -14 -117 -249 -140 -4 -4 -8 -2 -9 -5 -7 -18 -15 -27 -3 -6
0 0 0 0 0 0 -23 -17 -9 -26 -2 -18 -9 -3 -2 -2 -33 -36 -38 -36 -13 -10 -18 -25 -37 -34 -40 -53 -38 -4 -11 -4 -10 -25 -22 -14 -19 -26 -21 -13 -11 -7 -7 -5 -5 -3 -2 -2 -3
0 0 0 0 0 0 -110 -42 -19 -34 -5 -12 -17 -8 -1 -3 -5 -32 -38 -25 -16 -14 -10 -18 -34 -42 -47 -53 -50 -35 -5 -22 -11 -8 -14 -11 -25 -33 -29 -19 -7 -12 -3 -4 -2 -4 -8 -4 -120
0 0 0 0 -30 0 -128 -29 -10 -9 -18 -30 -3 -25 -6 -3 -3 -38 -35 -36 -41 -23 -33 -12 -34 -37 -46 -45 -44 -56 -41 -17 -25 -10 -10 -8 -26 -26 -40 -23 -9 -10 -4 -5 -10 -13 -53 -155 -96
0 0 0 -5 -2 0 -49 -7 -56 -80 -58 -59 -28 -28 -27 -7 -3 -5 -26 -36 -37 -28 -36 -36 -35 -42 -55 -62 -55 -56 -65 -39 -28 -18 -13 -13 -20 -35 -33 -26 -19 -18 -27 -22 -98 -61 -82 -123 -160
0 0 0 0 0 -2 -10 0 -1 -19 -58 -39 -41 -12 -32 -6 -5 -7 -9 -18 -47 -48 -33 -48 -37 -49 -63 -60 -65 -68 -68 -66 -41 -36 -23 -17 -7 -26 -21 -46 -60 -58 -67 -80 -68 -152 -155 -172 -236
0 0 0 0 0 -2 -13 -16 -19 -16 -27 -54 -14 -14 -26 -25 -30 -15 -12 -7 -16 -51 -43 -51 -24 -50 -48 -44 -63 -73 -69 -80 -60 -36 -18 -33 -3 -13 -51 -82 -91 -102 -97 -110 -70 -174 -173 -218 0
0 0 0 0 0 -25 -48 -37 -22 -23 -29 -18 -18 -3 -20 -32 -29 -22 -27 -11 -8 -17 -46 -72 -68 -59 -74 -61 -51 -67 -81 -84 -81 -52 -47 -37 -7 -42 -68 -88 -118 -122 -121 -108 -63 -171 -292 -175 0
0 0 0 0 0 0 0 0 -7 -29 -41 -35 -23 -15 -24 -30 -39 -36 -20 -28 -8 -24 -33 -57 -79 -84 -74 -82 -49 -78 -84 -82 -81 -89 -62 -46 -16 -43 -65 -58 -76 -41 -34 -49 -64 -187 -313 -213 0
Wind_Speed
22 22 20 17 18 17 17 27 16 10 22 20 22 19 18 17 13 13 25 25 25 24 20 17 7 10 16 5 3 6 6 11 11 6 10 19 25 16 6 18 20 22 22 23 26 25 25 21 21
24 21 17 11 18 25 19 15 29 26 24 20 21 21 17 24 22 20 23 24 22 22 20 19 13 9 17 14 8 9 1 3 12 17 23 22 25 25 24 20 21 20 21 24 23 23 23 23 22
16 17 14 17 17 27 27 18 26 26 23 23 24 25 26 28 24 26 26 24 23 23 18 17 14 13 11 16 16 19 14 3 16 24 25 25 25 25 24 23 22 17 22 23 22 22 21 21 21
15 11 14 19 28 27 25 26 25 25 24 25 25 25 26 22 24 27 28 28 24 19 17 16 17 15 14 19 17 11 16 18 24 25 25 24 24 23 23 22 22 20 21 20 20 20 19 19 19
12 14 15 21 27 26 26 21 24 25 25 26 27 29 28 27 26 29 29 25 22 22 21 19 16 18 23 23 25 26 26 26 25 24 24 23 22 21 21 20 20 20 19 18 18 18 17 17 17
18 11 14 10 17 24 20 10 16 24 23 25 27 27 27 26 27 29 29 30 28 25 25 24 23 24 24 24 25 26 26 25 24 23 22 21 20 19 19 19 19 19 18 18 18 17 16 16 16
17 14 28 20 23 23 24 24 16 26 26 26 26 26 27 27 26 28 29 24 29 28 26 25 25 27 26 27 26 24 24 24 23 22 19 12 13 16 18 18 18 17 17 16 16 16 15 15 15
23 19 29 26 23 24 24 22 16 25 25 26 24 24 27 27 28 28 29 29 31 29 27 27 26 26 26 25 26 24 24 23 22 21 10 7 17 18 17 17 16 15 15 13 13 13 13 13 13
15 5 21 22 21 22 22 22 24 24 24 22 22 25 27 28 29 29 28 29 27 29 28 28 26 26 25 22 23 23 22 22 21 18 18 17 13 17 15 15 14 13 13 13 12 12 12 12 13
21 16 20 22 22 23 22 22 23 22 22 23 25 27 27 30 28 29 27 28 28 26 27 27 26 25 24 24 22 22 22 21 20 18 17 17 16 16 16 14 13 12 12 12 12 11 10 11 11
16 13 13 23 21 22 20 22 22 21 20 22 25 27 28 30 28 28 27 27 28 28 26 28 21 21 24 21 22 22 20 20 19 18 17 14 15 15 13 13 13 13 12 12 10 10 10 9 7
18 12 13 23 19 19 21 20 21 22 22 21 23 27 28 29 28 27 28 26 27 25 21 25 22 21 24 19 21 21 19 19 16 17 16 15 15 15 13 12 13 13 13 10 11 10 8 8 11
10 15 13 17 14 6 15 15 14 20 21 21 23 27 27 28 27 26 26 24 25 25 23 25 19 15 7 15 21 20 15 18 15 16 16 16 16 14 14 13 13 13 12 12 7 12 12 18 12
9 17 15 16 18 14 13 16 12 14 20 20 23 26 26 27 27 25 26 24 24 24 24 17 17 19 14 22 7 16 19 17 13 15 14 14 15 14 14 13 13 16 17 18 20 16 15 9 7
7 12 9 15 20 20 23 18 13 15 16 20 23 25 25 25 25 24 26 25 25 24 22 16 16 20 18 19 11 20 18 16 16 15 14 13 13 12 12 12 9 6 9 12 14 19 18 16 10
21 8 14 19 20 19 25 7 20 19 16 20 23 25 25 26 25 22 25 24 23 21 17 16 19 18 19 19 17 19 19 17 14 12 13 13 12 11 10 10 7 4 8 7 12 10 12 15 12
15 10 9 19 19 16 16 12 20 20 22 20 23 24 23 24 23 22 24 23 20 15 13 14 21 17 17 17 17 20 19 15 14 14 13 14 13 12 10 8 6 3 2 7 6 9 12 18 8
10 10 14 19 20 14 13 16 19 22 21 21 22 22 23 23 23 20 23 24 21 16 15 19 19 13 16 16 20 19 17 16 15 14 15 15 14 12 11 8 6 6 13 16 14 15 17 15 15
13 13 17 23 19 22 10 21 18 21 20 20 19 20 21 23 23 22 23 22 19 19 17 19 18 16 17 17 19 18 16 15 15 14 14 14 13 12 11 9 8 12 20 20 20 19 17 14 13
15 14 18 19 22 1 5 18 17 16 18 19 17 18 18 22 22 22 23 22 22 20 18 19 21 17 17 18 17 16 17 14 12 12 11 15 14 13 14 12 13 17 20 22 20 18 17 15 14
16 13 18 20 17 10 20 16 9 14 16 18 17 14 17 19 22 23 23 25 22 21 19 17 19 17 19 19 17 17 17 11 12 12 19 15 17 14 18 16 18 17 17 19 19 17 14 13 14
20 16 15 11 16 16 11 14 13 17 14 16 16 13 14 19 21 23 25 24 23 21 20 17 18 18 18 20 16 13 12 12 11 9 13 14 13 14 19 16 16 15 16 19 18 16 14 15 14
23 23 18 15 14 15 14 8 15 14 13 13 14 17 17 17 19 22 23 23 24 20 20 18 16 16 17 18 19 13 14 14 12 14 14 13 14 17 17 15 16 16 17 18 18 17 18 17 17
27 26 22 18 16 13 22 16 13 15 15 13 14 18 21 20 17 20 21 22 23 19 18 18 17 16 18 17 19 21 17 17 15 9 12 13 14 15 15 16 15 16 17 18 19 19 19 20 20
23 24 24 22 18 9 21 13 15 18 20 15 14 16 22 18 18 15 19 21 21 21 20 19 18 17 18 20 19 21 20 13 16 13 10 11 13 12 14 14 15 15 17 18 18 18 20 19 21
25 23 29 27 26 11 15 13 13 17 19 19 16 15 17 19 19 19 20 21 22 21 22 21 19 19 17 18 20 18 17 15 12 11 11 10 11 11 13 14 15 16 16 16 16 19 18 20 21
28 8 24 31 31 27 18 17 13 15 17 19 18 15 17 20 19 16 19 18 18 19 20 21 17 17 15 15 17 17 15 16 13 13 10 9 13 12 12 14 14 14 14 15 15 17 18 19 20
27 31 31 21 25 25 20 21 7 11 14 15 15 16 15 19 20 17 17 16 17 18 19 18 14 15 14 14 16 16 16 16 16 12 9 8 7 9 10 11 12 11 12 12 13 14 17 19 21
21 24 31 33 31 29 28 13 10 10 11 14 15 15 16 15 19 21 19 18 15 16 15 16 17 15 14 14 14 15 16 16 16 15 11 7 6 7 7 8 8 9 9 10 14 15 15 17 18
21 29 16 27 29 31 28 13 11 9 12 11 13 15 15 14 12 14 14 16 16 15 16 17 17 16 14 14 13 16 16 16 14 14 9 5 3 4 5 6 6 7 7 9 11 10 12 14 16
Wind_Direction
131 131 138 130 131 129 130 64 19 357 41 28 35 25 24 356 357 36 99 101 93 91 88 84 86 72 81 83 106 195 55 53 49 27 36 59 81 144 0 44 53 64 69 75 93 81 73 57 59
137 140 145 198 135 90 111 43 83 75 56 36 28 10 18 52 55 75 91 91 87 89 89 89 79 75 84 78 71 202 25 17 50 65 83 75 90 85 77 54 61 57 67 94 86 87 87 91 81
185 169 168 100 126 77 90 131 58 80 88 52 60 50 63 66 73 92 92 94 90 93 84 85 81 80 77 85 83 189 203 346 67 98 100 104 107 105 95 89 81 45 82 102 91 98 104 107 106
148 177 165 122 56 90 55 73 71 85 67 76 66 56 68 58 79 91 96 100 91 82 78 83 86 83 80 89 83 72 202 190 106 118 119 116 118 115 118 121 123 144 121 120 106 114 120 119 109
157 178 151 97 56 55 76 105 95 77 82 73 72 85 73 83 90 100 101 94 87 85 89 89 83 87 98 98 107 118 135 144 138 138 139 138 129 127 124 132 133 129 118 120 121 119 131 133 123
39 175 145 3 18 51 17 304 104 66 86 70 80 82 88 87 98 109 110 108 105 96 100 100 99 101 102 105 111 125 144 152 154 145 149 141 133 131 130 125 126 115 107 102 116 129 121 129 135
92 121 61 25 84 71 75 104 131 74 86 90 90 93 100 105 100 111 114 93 105 103 101 105 108 119 118 127 123 119 156 154 151 153 176 260 245 204 162 133 120 109 99 95 97 129 137 140 132
60 71 49 74 100 83 90 106 1 70 82 89 92 101 113 111 119 113 111 112 127 107 111 121 113 121 124 119 133 122 132 138 139 142 336 31 172 160 153 136 107 95 98 89 91 106 112 131 131
107 266 75 85 95 89 102 85 87 83 104 105 80 114 114 116 121 122 117 118 108 117 118 123 121 125 128 110 118 122 130 132 127 98 100 91 122 171 129 136 93 92 94 92 94 107 118 136 156
96 97 95 88 101 81 88 87 103 94 89 92 96 100 112 130 127 125 121 130 135 129 129 118 119 116 121 120 113 129 135 138 130 110 99 98 108 111 109 90 81 80 81 86 94 98 130 138 151
80 108 331 51 31 51 67 89 98 95 96 96 104 114 122 132 133 128 132 131 142 136 108 120 94 97 122 102 128 135 131 147 134 118 115 115 121 114 98 88 73 68 78 75 97 76 100 83 261
79 136 109 58 35 35 87 88 76 73 105 92 109 121 129 134 139 131 142 131 146 123 106 139 116 106 145 105 140 139 123 131 98 106 99 86 93 113 83 73 60 45 44 47 48 56 89 53 289
150 111 130 64 319 89 176 353 173 61 76 85 108 124 130 139 139 134 136 129 134 132 125 136 106 154 15 87 179 162 98 132 73 90 105 109 130 86 50 51 46 27 37 33 66 16 6 332 193
172 331 298 60 94 244 307 293 319 26 74 87 113 126 132 139 144 134 141 134 130 131 133 101 102 125 93 168 349 245 186 127 100 126 92 102 171 78 67 54 34 3 352 341 330 348 356 28 87
183 46 115 126 61 69 57 231 134 205 58 99 121 128 133 139 143 137 144 141 138 136 127 101 102 123 112 145 59 158 131 124 121 114 78 86 106 109 69 55 71 68 26 7 354 321 332 335 18
303 118 106 69 50 67 39 330 213 222 156 118 128 133 135 145 144 131 146 143 139 131 113 107 126 114 125 125 114 143 149 144 94 34 79 82 94 108 107 85 91 132 58 33 18 19 18 339 2
226 225 223 14 63 88 37 103 172 180 166 129 134 139 138 141 137 132 145 144 130 112 104 107 141 115 116 114 120 166 172 119 120 104 108 117 108 108 127 130 112 121 184 186 89 31 356 241 50
155 186 335 10 11 74 78 91 117 149 142 131 138 136 147 147 143 129 141 148 131 117 109 132 130 95 116 115 153 152 138 126 116 125 173 140 130 121 114 138 135 109 75 73 106 139 163 174 222
166 220 264 352 23 358 106 352 114 118 139 130 128 137 142 153 147 134 140 136 128 125 118 133 131 117 117 119 138 145 142 130 131 143 138 122 126 137 134 131 137 103 76 95 112 133 147 158 155
214 214 271 278 328 180 232 56 142 134 138 142 131 132 138 152 150 143 147 138 135 133 126 129 140 128 133 138 137 136 147 132 106 97 36 326 186 114 95 120 102 79 86 88 103 128 128 130 133
192 207 279 279 243 350 288 309 153 149 138 149 143 132 138 145 157 150 151 153 139 138 132 127 138 135 142 146 143 154 181 38 50 31 359 251 215 111 57 82 66 87 99 88 99 109 125 132 101
220 266 250 205 227 234 108 352 169 156 115 139 151 143 142 146 151 152 159 158 152 140 138 135 140 141 145 158 146 135 130 130 111 85 71 131 162 95 46 76 74 92 98 79 86 96 107 90 92
219 258 257 221 213 225 120 149 89 68 129 134 145 156 155 147 145 153 156 158 164 146 146 141 139 145 148 152 163 144 155 162 151 67 67 90 81 51 61 70 62 81 74 59 61 69 59 62 54
235 251 242 225 213 267 243 259 40 61 76 130 132 152 158 152 143 150 151 157 162 150 143 145 145 150 156 155 165 177 170 174 174 111 71 85 70 76 67 63 77 59 56 48 36 38 28 13 19
204 216 240 241 206 45 196 200 42 36 25 44 105 120 153 144 146 134 149 154 156 161 155 153 152 150 156 166 165 176 178 159 179 162 97 85 87 84 78 75 58 61 38 40 41 42 36 39 29
251 196 233 258 271 41 168 12 8 13 37 66 54 94 133 144 149 149 146 153 160 160 159 160 154 156 155 162 172 168 171 168 158 148 149 137 100 71 65 61 47 36 50 38 50 39 48 37 36
264 274 209 258 271 271 301 324 33 41 36 54 51 57 110 145 149 142 146 146 149 155 159 162 151 155 155 160 166 167 163 169 165 165 147 139 33 50 61 46 47 57 49 56 52 40 34 36 37
277 260 259 287 275 275 284 317 35 18 26 25 48 61 89 135 146 140 148 144 145 151 154 157 151 156 159 160 166 167 170 171 173 164 145 140 99 77 71 58 68 63 58 54 54 44 37 23 21
283 278 268 261 264 274 265 344 21 16 14 24 27 45 65 97 137 150 142 154 141 149 149 155 161 160 159 157 162 168 173 173 175 175 164 140 81 76 70 66 71 73 65 53 27 38 33 30 22
289 271 289 272 271 270 281 328 45 32 18 14 17 14 25 48 85 122 124 140 144 147 153 157 160 163 161 162 161 171 173 174 173 177 169 147 109 69 58 56 56 47 35 29 22 31 28 23 17